sat.trackr.live / text

‹ back to catalog

PANDORA

NORAD 67395 · 2026-004AJ

PAYLOAD ACTIVE UNKNOWN

§ Identity

Operator
Country
US
Launch date
2026-01-11
Launch site
AFWTR
Launch vehicle
Mass (kg)
RCS (m²)

External: N2YO · Heavens-Above · Gunter

§ Orbital elements

Epoch: 2026-09-20T12:22:03.735264Z

Period
96.76 min
Inclination
97.8110°
Eccentricity
0.0005590
Mean motion
14.88205085 rev/d
Perigee alt
599.6 km
Apogee alt
607.4 km
Semi-major
6,981.7 km
B*
5.0480e-5
RAAN
260.7320°
Arg perigee
159.3014°
Mean anomaly
200.8430°
Rev number
3,745

§ Raw data

PANDORA1 67395U 26004AJ  26263.51532101  .00000411  00000+0  50480-4 0  99952 67395  97.8110 260.7320 0005590 159.3014 200.8430 14.88205085 37457

JSON: /api/v1/satellites/67395 · /tle

For live sub-satellite position, see the globe view (requires WebGL).

§ Visibility from observer

Set your observer location to see the next 7 days of passes ≥ 10°. The values pass through the URL so the page stays shareable.

No JS? Fill the form by hand. The geolocation button needs JavaScript.